Wind_Speed
58 61 62 63 60 71 74 67 64 68 50 40 38 37 38 39 39 40 40 41 44 44 47 47 50 53 55 57 54 53 53 51 48 47 47 44 48 51 54 59 61 60 59 60 61 61 60 60 55
59 64 61 65 72 73 67 64 62 49 39 37 37 38 37 37 38 39 39 40 41 42 45 48 50 54 57 60 62 63 62 62 60 55 54 49 43 42 49 52 55 61 63 63 64 63 63 64 60
63 66 66 72 74 65 64 61 45 34 33 35 30 29 30 33 35 36 38 41 42 45 46 49 53 56 58 62 66 67 67 68 67 65 64 61 53 48 49 48 51 54 57 65 67 68 67 66 65
71 69 72 70 59 58 50 36 32 29 25 24 23 27 30 31 34 36 40 43 45 47 49 52 56 61 65 70 73 74 75 73 71 70 69 67 61 54 53 54 53 51 52 57 63 68 70 71 69
69 69 58 50 46 36 29 28 27 21 22 26 26 28 28 30 34 41 46 47 48 51 53 55 56 58 64 70 77 81 80 78 78 77 73 72 70 67 63 62 60 54 55 54 57 60 67 71 72
66 59 46 38 28 24 23 24 22 20 25 24 27 28 30 35 38 45 48 50 50 52 55 57 60 61 63 69 74 79 81 82 80 76 75 74 73 72 71 70 67 65 63 57 57 58 59 65 69
41 31 25 24 18 20 18 22 22 22 26 27 30 32 35 38 44 49 51 54 52 54 57 59 62 64 69 73 75 78 79 77 77 74 73 71 72 74 74 71 73 72 69 61 60 64 63 63 65
22 20 18 19 17 16 19 22 22 26 27 28 31 35 38 42 48 52 56 56 53 56 57 62 66 69 72 76 77 77 80 78 71 68 68 67 71 71 75 72 73 76 77 69 69 66 66 68 66
20 19 19 19 17 19 22 25 27 26 27 28 32 37 42 46 51 56 57 54 55 56 60 65 70 72 73 75 75 78 72 72 69 59 57 61 65 67 65 71 77 81 78 76 73 73 70 69 69
19 20 21 18 20 23 26 27 27 27 27 30 34 39 44 48 53 57 57 54 57 59 66 69 71 74 75 76 72 75 71 64 62 50 48 51 56 61 63 69 76 80 82 81 79 76 75 73 71
23 21 20 20 23 25 27 26 26 28 29 32 38 42 46 50 55 59 56 56 58 62 64 69 73 76 73 74 70 67 63 59 56 52 48 47 52 59 65 69 75 79 80 80 84 78 80 79 77
22 21 24 24 26 26 27 27 28 29 30 35 41 44 49 53 58 58 56 55 58 60 63 69 73 74 70 67 67 62 58 56 53 49 45 42 48 55 60 63 69 69 74 76 75 74 77 78 81
21 24 27 29 29 29 30 30 29 30 34 39 44 47 50 55 59 56 56 56 55 57 63 71 75 73 70 69 66 61 57 52 49 48 45 42 44 52 56 59 55 57 64 66 70 70 78 78 77
23 26 27 29 31 31 33 31 30 32 37 42 47 49 52 57 59 55 55 56 57 57 65 73 78 75 71 67 66 59 52 46 44 42 38 40 39 46 58 62 62 75 66 65 62 66 73 79 74
27 27 30 34 33 32 35 30 32 35 39 44 47 50 55 59 57 54 55 54 56 58 67 76 77 77 71 69 65 55 49 42 37 33 34 35 35 38 56 64 70 66 66 60 65 60 66 77 78
31 32 32 33 34 34 34 31 34 37 42 45 47 51 55 57 53 53 53 53 55 58 67 73 76 77 71 67 60 53 46 38 34 31 34 35 37 34 53 61 69 71 64 49 48 52 57 68 72
35 36 33 32 34 35 32 33 34 39 45 44 48 52 56 55 53 50 51 52 55 57 65 72 74 75 71 68 59 50 45 45 39 40 38 39 41 39 43 61 67 69 62 48 53 51 49 57 63
33 31 30 31 32 31 31 33 34 39 42 46 49 51 54 52 50 49 50 50 54 58 66 71 75 75 72 68 60 49 47 51 50 42 42 43 48 45 43 59 72 71 48 44 48 54 54 55 55
31 31 32 30 30 31 33 33 37 38 43 47 49 52 51 50 49 47 48 50 56 58 66 73 78 80 76 71 61 49 52 52 46 38 27 41 46 52 49 60 77 71 50 41 42 46 44 46 48
32 31 33 32 33 33 36 33 39 40 45 47 49 49 47 46 47 46 47 50 56 58 64 73 79 82 77 75 60 54 50 46 41 28 18 31 47 54 52 56 75 82 55 48 44 47 44 48 49
33 32 34 35 35 37 37 37 38 40 44 46 49 43 41 42 44 44 47 49 55 59 64 71 79 81 80 75 64 59 52 38 29 25 14 25 41 55 57 54 81 75 67 55 57 57 54 54 48
36 35 35 34 36 36 35 39 35 42 44 48 46 38 37 40 41 43 47 50 55 60 62 69 79 80 82 77 64 57 52 35 22 9 5 17 32 55 60 57 84 84 71 62 60 63 58 54 52
38 38 39 36 34 35 35 37 37 41 44 48 39 35 35 36 39 42 48 51 55 60 60 66 75 79 82 80 71 58 50 39 25 12 3 9 23 39 58 59 80 89 79 71 63 64 60 60 51
45 42 39 37 37 38 38 38 41 43 45 46 35 37 35 38 39 42 46 49 53 58 61 63 72 78 80 83 75 59 51 42 30 16 9 5 16 29 45 52 75 89 83 71 64 61 53 57 58
47 45 44 41 42 42 41 41 40 45 47 44 33 33 35 38 39 40 44 47 51 54 60 63 68 74 78 82 79 63 53 49 42 26 17 6 10 24 38 47 72 86 87 78 64 65 60 53 56
50 49 49 46 44 44 44 44 41 47 46 39 30 33 38 38 40 40 43 45 49 52 57 61 65 71 76 77 81 74 53 51 50 41 27 18 10 16 34 46 62 77 84 76 66 55 60 58 52
53 52 52 49 47 46 47 46 44 45 42 33 30 34 36 38 42 43 44 44 47 50 54 58 60 66 70 77 76 76 65 47 50 49 36 27 22 3 16 36 53 76 82 78 70 63 47 51 51
56 55 53 53 50 49 48 49 48 45 41 36 34 33 34 38 40 43 44 44 44 47 51 54 56 60 64 67 72 73 70 59 44 47 46 35 21 18 6 15 48 70 76 74 76 69 60 59 52
59 57 56 56 52 51 51 50 49 46 38 35 33 32 35 37 38 41 44 43 41 44 47 52 54 56 60 62 66 70 70 68 60 48 45 46 40 27 21 11 37 72 75 75 74 75 68 58 67
61 59 59 57 53 51 48 47 53 42 35 32 33 34 36 38 37 39 42 43 43 42 44 48 50 55 56 58 59 64 66 66 68 61 54 46 43 41 38 20 10 16 74 73 74 73 69 73 70
Wind_Direction
270 274 279 284 288 296 297 299 299 307 310 312 313 317 313 313 314 315 313 310 306 302 300 298 295 293 293 292 290 287 285 283 282 276 268 264 262 258 257 254 250 249 249 246 241 242 243 245 246
277 281 281 287 290 295 298 300 297 308 307 308 312 315 312 315 321 322 317 313 307 302 297 296 294 288 287 286 287 287 285 282 280 280 279 279 278 266 266 263 259 252 249 248 246 243 243 245 245
280 283 282 289 295 293 290 297 303 303 305 311 320 316 317 322 323 320 312 308 305 299 294 290 288 286 284 282 280 280 280 278 281 283 283 283 281 274 270 269 263 261 256 251 249 247 246 245 246
274 283 287 289 295 292 297 294 299 308 309 312 314 319 323 328 328 323 318 315 309 303 298 296 293 290 288 283 283 280 279 279 278 278 281 280 280 278 275 270 268 263 261 257 253 251 249 248 246
277 281 289 294 295 296 296 300 304 311 310 304 310 318 317 320 321 324 325 318 310 306 302 299 295 293 290 287 284 284 282 281 280 280 280 279 276 276 272 271 270 265 259 265 256 253 250 248 251
276 278 285 292 286 284 291 295 292 305 312 307 306 312 316 321 321 323 325 322 315 310 308 304 302 298 292 289 288 287 286 285 282 280 279 275 274 273 272 271 269 268 267 264 257 255 254 252 251
274 272 272 272 277 284 284 285 290 295 304 303 309 314 320 322 325 327 327 324 317 311 310 306 304 301 299 294 292 291 290 287 284 282 280 275 268 266 265 264 262 262 262 262 259 252 255 256 253
245 234 251 265 273 270 279 281 290 300 305 306 310 318 321 324 327 328 327 322 315 311 310 307 305 305 302 301 298 295 293 292 289 284 278 274 268 262 259 259 256 255 257 258 257 255 253 252 252
218 232 248 260 263 263 283 287 300 305 304 306 313 317 321 324 327 328 327 320 315 314 309 307 308 309 310 307 303 301 299 294 290 287 276 270 266 260 253 251 247 249 250 252 253 252 252 251 250
233 240 244 254 260 277 284 293 304 303 304 308 314 318 321 325 326 327 326 318 316 312 312 314 315 316 315 312 307 302 302 300 295 289 278 265 261 254 251 246 245 245 245 245 248 251 251 252 250
235 240 252 264 268 279 287 300 302 302 304 310 317 320 324 325 327 329 324 318 315 316 320 321 321 322 320 314 309 304 308 300 292 287 279 266 256 249 244 241 241 243 245 246 244 248 249 249 250
241 252 253 263 271 280 297 306 302 302 307 314 319 322 325 325 328 329 322 316 319 322 325 325 324 326 321 316 313 308 306 295 287 281 278 265 251 242 241 241 244 248 245 247 246 249 249 249 250
251 254 259 261 274 287 303 305 299 301 308 316 320 323 326 327 332 327 320 320 323 328 330 328 327 329 327 323 318 310 300 294 290 282 275 266 244 238 235 235 236 258 255 253 250 248 247 247 248
262 260 261 266 275 286 302 301 297 300 308 314 320 323 326 330 333 325 322 322 326 333 333 332 334 335 332 328 321 314 309 299 290 283 274 264 245 232 227 222 212 229 243 249 241 240 242 244 244
262 270 268 269 277 286 299 295 294 300 308 316 321 324 327 332 331 323 323 327 329 337 338 337 339 337 335 331 327 322 317 306 295 285 274 263 250 229 224 220 210 218 228 238 242 241 237 239 244
265 273 273 269 275 287 294 292 295 299 308 315 322 326 328 334 326 324 325 329 331 341 340 338 339 340 336 335 331 322 315 303 293 282 271 263 252 240 222 220 214 217 223 235 248 245 240 238 241
267 274 276 274 280 289 288 293 298 300 308 318 323 329 331 332 326 325 326 331 336 344 342 340 341 343 338 338 335 324 315 305 284 269 257 240 238 234 223 212 206 207 211 218 233 242 238 240 237
269 272 274 279 283 286 287 295 297 303 313 321 325 330 331 330 328 326 329 334 340 346 344 345 345 345 346 344 338 324 309 300 296 289 262 242 226 229 217 205 201 206 206 227 233 233 233 242 242
270 275 278 280 279 284 287 294 298 308 313 318 324 330 329 328 327 328 330 337 341 346 348 350 349 350 349 348 339 324 317 314 308 297 273 243 229 221 221 198 203 198 198 206 209 222 235 237 251
267 271 273 275 279 287 287 297 300 309 313 318 323 330 330 331 330 332 333 339 343 349 350 354 350 352 352 350 344 331 332 318 311 303 263 233 225 211 218 202 204 201 198 202 207 220 227 234 246
263 268 270 277 283 286 284 294 302 307 311 317 323 331 332 331 338 336 342 345 348 351 353 357 354 355 355 354 349 342 344 332 316 301 256 219 211 211 210 204 202 195 195 198 206 215 220 227 238
261 265 271 276 279 283 284 291 303 306 310 317 324 332 331 329 339 343 347 347 352 354 356 359 356 357 358 358 357 346 348 350 346 329 240 210 204 205 206 206 201 198 196 203 201 211 221 228 237
258 266 272 277 281 282 285 291 300 301 309 317 323 331 333 328 337 343 345 349 352 357 358 1 358 1 360 5 3 352 0 2 3 21 11 201 209 206 207 209 202 200 202 204 206 209 217 224 231
259 266 270 272 274 281 285 291 294 299 308 315 317 326 332 332 332 341 345 347 351 356 1 1 360 3 2 6 8 360 8 18 18 27 35 199 199 201 205 205 196 200 201 200 207 207 213 220 227
259 264 268 273 273 279 283 289 292 297 305 312 312 325 331 330 329 340 342 345 350 353 1 2 1 3 7 6 11 9 17 22 31 33 42 76 175 190 198 199 197 200 197 201 208 211 214 221 228
259 262 265 269 271 277 280 285 287 292 303 306 309 322 325 330 330 337 342 343 348 351 358 5 3 3 11 9 9 14 21 26 30 35 42 50 101 164 188 199 199 200 196 204 205 208 220 222 227
257 260 263 266 268 274 280 282 285 292 300 299 307 317 323 326 332 336 338 341 343 350 354 2 5 5 9 12 10 14 20 32 37 35 33 39 38 181 196 206 205 201 202 205 210 217 209 224 238
255 260 264 267 269 275 279 281 285 291 294 293 304 313 319 324 331 336 337 340 342 346 351 358 6 7 9 16 13 12 21 26 40 43 43 40 46 68 48 221 210 207 205 208 214 220 224 230 239
258 259 266 267 270 273 278 277 279 286 291 291 302 308 315 324 329 334 336 337 342 341 349 354 359 7 7 14 17 15 17 23 31 40 42 45 46 45 57 61 208 211 210 213 216 224 224 230 234
257 261 264 262 268 275 274 272 274 280 289 296 299 305 308 321 323 327 334 335 338 339 342 349 356 359 8 10 17 16 19 23 27 35 37 35 37 41 44 57 67 221 216 219 218 225 230 233 235
Height
10828 10826 10825 10823 10824 10820 10814 10811 10808 10805 10797 10791 10789 10787 10784 10780 10776 10773 10770 10765 10761 10758 10754 10751 10747 10744 10741 10737 10737 10735 10734 10733 10733 10734 10736 10739 10739 10738 10738 10740 10744 10748 10751 10754 10755 10755 10755 10754 10758
10821 10821 10818 10817 10817 10813 10808 10806 10804 10799 10793 10790 10787 10784 10779 10775 10772 10769 10764 10759 10756 10752 10749 10745 10741 10736 10732 10729 10727 10724 10722 10720 10720 10720 10722 10727 10730 10730 10727 10730 10732 10735 10738 10741 10743 10744 10745 10745 10748
10814 10814 10814 10811 10809 10806 10803 10800 10796 10796 10790 10786 10784 10780 10775 10772 10768 10764 10759 10753 10750 10746 10743 10738 10732 10728 10725 10720 10715 10711 10709 10708 10707 10709 10711 10713 10716 10719 10719 10719 10720 10722 10725 10728 10731 10734 10736 10736 10739
10806 10807 10804 10805 10802 10796 10795 10791 10789 10790 10786 10782 10780 10778 10772 10766 10764 10760 10754 10749 10744 10738 10734 10729 10724 10717 10712 10706 10699 10696 10694 10695 10696 10694 10696 10698 10701 10705 10705 10705 10707 10710 10711 10713 10716 10721 10724 10727 10730
10801 10801 10798 10798 10796 10792 10791 10787 10786 10786 10783 10779 10777 10774 10770 10765 10761 10756 10749 10742 10736 10730 10723 10719 10713 10707 10697 10687 10682 10678 10677 10678 10679 10681 10683 10683 10684 10686 10687 10689 10688 10694 10697 10698 10700 10704 10709 10714 10718
10793 10794 10792 10793 10793 10789 10789 10787 10784 10782 10780 10777 10774 10771 10766 10762 10757 10751 10744 10736 10729 10722 10714 10706 10699 10691 10684 10678 10670 10662 10658 10655 10657 10660 10663 10666 10666 10666 10668 10670 10673 10675 10678 10682 10686 10690 10694 10699 10704
10788 10786 10785 10787 10789 10786 10786 10785 10783 10781 10777 10772 10768 10765 10761 10756 10750 10743 10736 10729 10721 10712 10703 10695 10685 10678 10669 10660 10654 10645 10639 10636 10637 10638 10638 10643 10642 10645 10647 10652 10654 10657 10659 10665 10670 10674 10679 10683 10688
10782 10781 10781 10784 10784 10783 10784 10783 10780 10776 10772 10768 10763 10760 10755 10749 10743 10736 10728 10720 10712 10703 10695 10683 10675 10665 10654 10642 10632 10628 10619 10614 10615 10618 10617 10618 10616 10623 10627 10633 10636 10637 10639 10646 10653 10659 10663 10669 10673
10776 10777 10776 10779 10780 10781 10781 10779 10774 10771 10767 10764 10761 10755 10749 10742 10734 10727 10719 10710 10702 10694 10684 10673 10662 10650 10639 10629 10615 10606 10604 10596 10592 10595 10595 10595 10594 10597 10609 10613 10618 10620 10623 10628 10635 10643 10648 10653 10658
10774 10774 10774 10775 10777 10778 10777 10774 10770 10766 10763 10760 10756 10751 10744 10736 10729 10721 10712 10702 10694 10684 10673 10659 10647 10634 10621 10610 10601 10586 10580 10576 10570 10572 10574 10574 10573 10579 10587 10595 10599 10605 10608 10611 10616 10626 10633 10638 10644
10771 10771 10771 10773 10774 10774 10772 10769 10765 10761 10758 10755 10751 10745 10738 10731 10723 10713 10702 10692 10684 10672 10659 10646 10633 10618 10605 10588 10577 10567 10559 10552 10549 10549 10550 10554 10556 10560 10565 10573 10576 10586 10593 10596 10603 10612 10617 10624 10630
10767 10767 10767 10768 10769 10769 10766 10763 10760 10756 10753 10749 10744 10738 10731 10723 10714 10705 10694 10685 10675 10662 10650 10636 10624 10610 10593 10576 10560 10548 10539 10532 10529 10528 10530 10534 10537 10542 10549 10561 10568 10572 10578 10583 10594 10600 10606 10610 10616
10763 10763 10764 10764 10764 10763 10761 10758 10755 10752 10748 10744 10738 10731 10723 10715 10706 10696 10686 10677 10666 10655 10641 10627 10613 10594 10576 10559 10545 10533 10522 10515 10512 10510 10512 10515 10519 10524 10536 10546 10558 10559 10564 10570 10581 10587 10593 10600 10605
10759 10759 10759 10759 10759 10758 10756 10753 10750 10748 10744 10739 10732 10724 10717 10707 10698 10687 10677 10668 10658 10646 10632 10614 10596 10579 10563 10547 10530 10516 10507 10499 10496 10495 10495 10496 10503 10508 10518 10528 10535 10536 10546 10552 10561 10569 10578 10587 10595
10754 10754 10755 10755 10754 10753 10751 10748 10746 10743 10739 10734 10728 10718 10710 10701 10691 10681 10670 10661 10649 10638 10622 10605 10589 10570 10552 10534 10518 10503 10494 10486 10481 10480 10480 10482 10487 10493 10500 10513 10523 10528 10535 10541 10545 10557 10563 10571 10580
10748 10749 10749 10749 10748 10748 10746 10743 10740 10737 10733 10728 10722 10713 10704 10694 10685 10675 10664 10654 10643 10632 10617 10601 10583 10562 10543 10526 10509 10495 10484 10477 10472 10469 10469 10470 10473 10481 10485 10497 10513 10521 10527 10534 10535 10542 10551 10560 10568
10743 10743 10743 10743 10742 10741 10740 10738 10736 10732 10728 10723 10715 10707 10698 10689 10679 10670 10659 10649 10638 10628 10614 10596 10576 10556 10534 10515 10499 10485 10473 10465 10462 10457 10457 10458 10461 10467 10477 10486 10501 10510 10521 10526 10530 10537 10541 10547 10557
10736 10736 10737 10737 10736 10735 10734 10733 10731 10728 10722 10716 10709 10701 10692 10683 10675 10664 10654 10644 10634 10621 10607 10589 10569 10549 10528 10507 10489 10474 10462 10451 10441 10439 10441 10443 10448 10454 10465 10478 10492 10506 10518 10520 10526 10531 10533 10538 10547
10730 10730 10729 10730 10729 10728 10727 10727 10724 10721 10717 10710 10703 10696 10686 10678 10670 10660 10650 10639 10628 10616 10601 10581 10562 10540 10517 10499 10480 10461 10446 10432 10422 10417 10423 10427 10432 10442 10451 10467 10481 10496 10504 10511 10515 10520 10526 10531 10537
10722 10723 10722 10723 10722 10722 10721 10721 10717 10714 10710 10704 10698 10691 10681 10673 10666 10656 10646 10635 10624 10612 10596 10577 10556 10534 10514 10494 10473 10454 10437 10420 10407 10404 10407 10412 10418 10430 10441 10457 10468 10489 10496 10503 10512 10514 10521 10526 10530
10716 10716 10715 10716 10716 10715 10714 10714 10711 10708 10703 10698 10692 10686 10677 10670 10663 10653 10643 10632 10620 10607 10591 10574 10555 10534 10511 10489 10465 10443 10430 10414 10400 10395 10397 10403 10412 10421 10432 10446 10460 10477 10488 10497 10501 10508 10514 10519 10523
10708 10708 10708 10709 10709 10708 10708 10705 10707 10701 10697 10693 10687 10680 10673 10666 10659 10650 10639 10629 10616 10603 10588 10572 10555 10533 10511 10487 10464 10441 10424 10410 10399 10392 10393 10399 10409 10418 10427 10436 10450 10470 10479 10484 10491 10499 10508 10514 10518
10700 10701 10702 10701 10701 10699 10701 10699 10698 10695 10690 10686 10681 10675 10668 10662 10655 10647 10637 10625 10614 10602 10587 10573 10557 10535 10512 10489 10464 10443 10426 10411 10401 10395 10394 10398 10405 10413 10422 10430 10446 10462 10470 10478 10488 10494 10503 10509 10512
10692 10694 10695 10694 10694 10693 10693 10693 10691 10687 10684 10680 10675 10670 10664 10657 10652 10644 10634 10623 10611 10600 10588 10572 10557 10538 10516 10494 10470 10448 10431 10417 10406 10401 10398 10400 10404 10411 10419 10430 10442 10455 10467 10479 10482 10491 10498 10502 10508
10682 10685 10687 10688 10686 10686 10685 10685 10686 10681 10677 10674 10670 10665 10660 10654 10648 10640 10631 10621 10610 10598 10587 10572 10559 10542 10521 10500 10481 10458 10439 10426 10415 10409 10407 10407 10409 10415 10421 10431 10439 10448 10461 10474 10479 10488 10494 10500 10503
10673 10675 10677 10679 10678 10678 10678 10678 10678 10674 10671 10668 10664 10660 10656 10650 10643 10637 10629 10619 10609 10597 10587 10575 10560 10545 10527 10508 10490 10472 10451 10437 10425 10421 10417 10418 10419 10423 10428 10433 10439 10447 10461 10469 10480 10486 10490 10494 10497
10663 10665 10666 10670 10671 10671 10669 10669 10669 10668 10665 10662 10658 10654 10650 10645 10640 10633 10625 10618 10608 10597 10586 10577 10564 10549 10534 10518 10501 10486 10468 10452 10442 10434 10430 10428 10430 10432 10435 10438 10441 10449 10461 10471 10479 10486 10491 10488 10496
10650 10653 10657 10660 10663 10664 10662 10658 10659 10659 10658 10656 10653 10648 10644 10640 10635 10629 10622 10615 10607 10596 10585 10576 10567 10556 10541 10529 10513 10497 10484 10468 10456 10448 10442 10438 10438 10438 10441 10441 10446 10452 10463 10472 10479 10482 10485 10489 10493
10639 10642 10645 10649 10653 10654 10654 10649 10648 10650 10650 10648 10646 10642 10638 10634 10631 10625 10618 10611 10604 10594 10585 10576 10566 10559 10548 10534 10523 10508 10494 10480 10468 10457 10453 10450 10448 10446 10443 10444 10449 10457 10464 10472 10476 10476 10481 10485 10486
10626 10630 10633 10636 10642 10644 10645 10643 10635 10640 10642 10641 10640 10636 10632 10629 10625 10621 10615 10607 10601 10594 10583 10576 10568 10558 10552 10541 10532 10521 10506 10494 10481 10471 10462 10455 10453 10453 10454 10452 10454 10459 10464 10468 10473 10472 10479 10483 10483